Location: Lombard
(41.8800°N, 88.0080°W)
Time: 22:58:47
(UTC-05:00)

DX 1 - Pass Details

Date: 17 June 2023
Orbit: 614 x 623 km, 98.3° (Epoch: 02 October)

Event Time Altitude Azimuth Distance (km) Brightness Sun altitude
Rises 22:34:35 0° 28° (NNE) 2,909 ? -17.3°
Reaches altitude 10° 22:37:15 10° 45° (NE) 1,995 ? -17.6°
Maximum altitude 22:40:32 21° 94° (E) 1,409 ? -17.9°
Enters shadow 22:40:33 21° 95° (E) 1,409 ? -17.9°
